Location: Newark
(43.0000°N, 1.6781°W)
Time: 23:09:31
(UTC+00:00)

N. Korean satellite - Pass Details

Date: 12 December 2021
Orbit: 447 x 491 km, 97.3° (Epoch: 21 January)

Event Time Altitude Azimuth Distance (km) Brightness Sun altitude
Rises 05:42:25 0° 6° (N) 2,459 10.1 -18.7°
Enters shadow 05:43:23 - 4° (N) 2,045 9.6 -18.5°
Exits shadow 05:48:34 39° 242° (WSW) 694 7.0 -17.6°
Drops below altitude 10° 05:51:02 10° 210° (SSW) 1,579 9.0 -17.2°
Sets 05:53:06 0° 205° (SSW) 2,452 10.0 -16.8°
